Weather History for Camdenton, MO

Change the Weather History Date:

Wednesday, January 2, 2013

  Actual Average (KAIZ) Record (KAIZ)
Temperature  
Mean Temperature 22 °F -  
Max Temperature 35 °F 41 °F 71 °F (1997)
Min Temperature 10 °F 24 °F -7 °F (2001)
Degree Days  
Heating Degree Days 42    
Moisture  
Dew Point 14 °F    
Average Humidity 66    
Maximum Humidity 100    
Minimum Humidity 35    
Precipitation  
Precipitation 0.03 in - - ()
Sea Level Pressure  
Sea Level Pressure 30.21 in    
Wind  
Wind Speed 3 mph (SSW)    
Max Wind Speed 10 mph    
Max Gust Speed -    
Visibility 10 miles    
Events      
Averages and records for this station are not official NWS values.
T = Trace of Precipitation, MM = Missing Value Source: NWS Daily Summary

Daily Weather History Graph

Daily Weather History Graph

Search for Another Location

Airport:

Trip Planner

Search our weather history database for the weather conditions in past years. The results will help you decide how hot, cold, wet, or windy it might be!

Date:

Astronomy

Jan. 02, 2013 Rise Set
Actual Time 7:26 AM CST 5:03 PM CST
Civil Twilight 6:57 AM CST 5:32 PM CST
Nautical Twilight 6:24 AM CST 6:05 PM CST
Astronomical Twilight 5:52 AM CST 6:37 PM CST
Moon 10:30 PM CST (1/2) 10:14 AM CST (1/2)
Length of Visible Light 10h 34m
Length of Day
9h 36m
Waning Gibbous, 75% of the Moon is Illuminated
Jan 2
Waning Gibbous
Jan 4
Last Quarter
Jan 11
New
Jan 18
First Quarter
Jan 26
Full

Hourly Weather History & Observations

Time (CST) Temp. Windchill Dew Point Humidity Pressure Visibility Wind Dir Wind Speed Gust Speed Precip Events Conditions
12:15 AM 17.6 °F - 17.6 °F 100% 30.24 in 10.0 mi Calm Calm - N/A   Clear
12:35 AM 17.6 °F - 17.6 °F 100% 30.23 in 10.0 mi Calm Calm - N/A   Clear
12:55 AM 17.6 °F 12.3 °F 17.6 °F 100% 30.23 in 10.0 mi SW 3.5 mph - N/A   Clear
1:15 AM 15.8 °F - 14.0 °F 93% 30.22 in 10.0 mi Calm Calm - N/A   Clear
1:35 AM 14.0 °F - 14.0 °F 100% 30.24 in 7.0 mi Calm Calm - N/A   Clear
1:55 AM 15.8 °F 10.2 °F 14.0 °F 93% 30.24 in 10.0 mi West 3.5 mph - N/A   Clear
2:15 AM 14.0 °F - 14.0 °F 100% 30.24 in 10.0 mi Calm Calm - N/A   Clear
2:35 AM 14.0 °F 6.5 °F 14.0 °F 100% 30.25 in 10.0 mi WSW 4.6 mph - N/A   Clear
2:55 AM 15.8 °F 8.6 °F 14.0 °F 93% 30.25 in 10.0 mi SW 4.6 mph - N/A   Clear
3:15 AM 15.8 °F 8.6 °F 14.0 °F 93% 30.24 in 10.0 mi SW 4.6 mph - N/A   Clear
3:35 AM 15.8 °F 8.6 °F 14.0 °F 93% 30.24 in 10.0 mi SW 4.6 mph - N/A   Clear
3:55 AM 15.8 °F 10.2 °F 14.0 °F 93% 30.24 in 10.0 mi SW 3.5 mph - N/A   Clear
4:15 AM 15.8 °F - 12.2 °F 86% 30.23 in 10.0 mi Calm Calm - N/A   Clear
4:35 AM 14.0 °F 8.2 °F 12.2 °F 93% 30.23 in 10.0 mi South 3.5 mph - N/A   Clear
4:55 AM 15.8 °F 10.2 °F 12.2 °F 86% 30.22 in 10.0 mi South 3.5 mph - N/A   Clear
5:15 AM 15.8 °F - 12.2 °F 86% 30.22 in 10.0 mi Calm Calm - N/A   Clear
5:35 AM 15.8 °F 10.2 °F 12.2 °F 86% 30.22 in 10.0 mi WSW 3.5 mph - N/A   Clear
5:55 AM 15.8 °F 10.2 °F 12.2 °F 86% 30.24 in 10.0 mi SW 3.5 mph - N/A   Clear
6:15 AM 15.8 °F 8.6 °F 12.2 °F 86% 30.23 in 10.0 mi SSW 4.6 mph - N/A   Clear
6:35 AM 15.8 °F 10.2 °F 12.2 °F 86% 30.23 in 10.0 mi South 3.5 mph - N/A   Clear
6:55 AM 14.0 °F 6.5 °F 12.2 °F 93% 30.23 in 10.0 mi South 4.6 mph - N/A   Clear
7:15 AM 10.4 °F - 10.4 °F 100% 30.23 in 10.0 mi Calm Calm - N/A   Clear
7:35 AM 10.4 °F 4.0 °F 8.6 °F 92% 30.23 in 10.0 mi SSW 3.5 mph - N/A   Clear
7:55 AM 17.6 °F 10.7 °F 14.0 °F 86% 30.23 in 10.0 mi SSW 4.6 mph - N/A   Clear
8:15 AM 17.6 °F 12.3 °F 14.0 °F 86% 30.22 in 10.0 mi SW 3.5 mph - N/A   Clear
8:35 AM 17.6 °F - 14.0 °F 86% 30.22 in 10.0 mi Calm Calm - N/A   Clear
9:15 AM 19.4 °F - 17.6 °F 93% 30.22 in - Calm Calm - 0.03 in   Unknown
9:35 AM 23.0 °F 17.0 °F 17.6 °F 80% 30.23 in 10.0 mi South 4.6 mph - 0.03 in   Clear
9:55 AM 23.0 °F 14.7 °F 15.8 °F 74% 30.23 in 10.0 mi SSW 6.9 mph - 0.03 in   Clear
10:15 AM 26.6 °F 21.2 °F 14.0 °F 59% 30.22 in 10.0 mi South 4.6 mph - N/A   Clear
10:35 AM 26.6 °F 20.0 °F 14.0 °F 59% 30.22 in 10.0 mi South 5.8 mph - N/A   Clear
10:55 AM 28.4 °F 23.3 °F 14.0 °F 55% 30.23 in 10.0 mi South 4.6 mph - N/A   Clear
11:15 AM 30.2 °F 24.3 °F 14.0 °F 51% 30.22 in 10.0 mi SSW 5.8 mph - N/A   Clear
11:35 AM 30.2 °F 23.4 °F 12.2 °F 47% 30.21 in 10.0 mi South 6.9 mph - N/A   Clear
11:55 AM 32.0 °F 26.4 °F 10.4 °F 41% 30.20 in 10.0 mi SSW 5.8 mph - N/A   Clear
12:15 PM 32.0 °F 23.6 °F 10.4 °F 41% 30.19 in 10.0 mi SSW 10.4 mph - N/A   Clear
12:35 PM 32.0 °F 24.8 °F 10.4 °F 41% 30.19 in 10.0 mi South 8.1 mph - N/A   Clear
12:55 PM 32.0 °F 25.6 °F 12.2 °F 44% 30.18 in 10.0 mi SSW 6.9 mph - N/A   Clear
1:15 PM 33.8 °F 27.0 °F 12.2 °F 41% 30.17 in 10.0 mi South 8.1 mph - N/A   Clear
1:35 PM 33.8 °F 28.6 °F 14.0 °F 44% 30.16 in 10.0 mi South 5.8 mph - N/A   Clear
1:55 PM 33.8 °F 27.7 °F 12.2 °F 41% 30.16 in 10.0 mi SSW 6.9 mph - N/A   Clear
2:15 PM 35.6 °F 29.9 °F 10.4 °F 35% 30.15 in 10.0 mi SSW 6.9 mph - N/A   Clear
2:35 PM 35.6 °F 29.9 °F 12.2 °F 38% 30.15 in 10.0 mi South 6.9 mph - N/A   Clear
2:55 PM 35.6 °F 30.7 °F 10.4 °F 35% 30.14 in 10.0 mi South 5.8 mph - N/A   Clear
3:15 PM 35.6 °F 29.2 °F 10.4 °F 35% 30.15 in 10.0 mi South 8.1 mph - N/A   Clear
3:35 PM 35.6 °F 29.9 °F 10.4 °F 35% 30.16 in 10.0 mi SSW 6.9 mph - N/A   Clear
3:55 PM 35.6 °F 31.7 °F 10.4 °F 35% 30.16 in 10.0 mi SSW 4.6 mph - N/A   Clear
4:15 PM 35.6 °F 31.7 °F 10.4 °F 35% 30.16 in 10.0 mi South 4.6 mph - N/A   Clear
4:35 PM 33.8 °F 28.6 °F 10.4 °F 38% 30.16 in 10.0 mi SSW 5.8 mph - N/A   Clear
4:55 PM 33.8 °F 29.6 °F 10.4 °F 38% 30.16 in 10.0 mi SSW 4.6 mph - N/A   Clear
5:15 PM 33.8 °F 30.8 °F 10.4 °F 38% 30.17 in 10.0 mi SSW 3.5 mph - N/A   Clear
5:35 PM 32.0 °F 28.7 °F 10.4 °F 41% 30.17 in 10.0 mi SSW 3.5 mph - N/A   Clear
5:55 PM 32.0 °F 28.7 °F 10.4 °F 41% 30.17 in 10.0 mi SSW 3.5 mph - N/A   Clear
6:55 PM 32.0 °F 27.5 °F 12.2 °F 44% 30.19 in 10.0 mi South 4.6 mph - N/A   Clear
7:15 PM 32.0 °F 26.4 °F 12.2 °F 44% 30.19 in 10.0 mi SSW 5.8 mph - N/A   Clear
7:35 PM 30.2 °F 24.3 °F 12.2 °F 47% 30.19 in 10.0 mi SSW 5.8 mph - N/A   Clear
7:55 PM 30.2 °F 25.4 °F 14.0 °F 51% 30.20 in 10.0 mi SW 4.6 mph - N/A   Clear
8:15 PM 30.2 °F 23.4 °F 14.0 °F 51% 30.20 in 10.0 mi SSW 6.9 mph - N/A   Clear
8:35 PM 30.2 °F 23.4 °F 14.0 °F 51% 30.20 in 10.0 mi SW 6.9 mph - N/A   Clear
8:55 PM 30.2 °F 23.4 °F 14.0 °F 51% 30.21 in 10.0 mi SW 6.9 mph - N/A   Clear
9:15 PM 28.4 °F 23.3 °F 15.8 °F 59% 30.22 in 10.0 mi SW 4.6 mph - N/A   Clear
9:35 PM 28.4 °F 22.2 °F 15.8 °F 59% 30.22 in 10.0 mi SW 5.8 mph - N/A   Scattered Clouds
9:55 PM 30.2 °F 24.3 °F 17.6 °F 60% 30.22 in 10.0 mi SSW 5.8 mph - N/A   Overcast
10:15 PM 30.2 °F 23.4 °F 17.6 °F 60% 30.23 in 10.0 mi SW 6.9 mph - N/A   Overcast
10:35 PM 30.2 °F 24.3 °F 19.4 °F 64% 30.23 in 10.0 mi SW 5.8 mph - N/A   Overcast
10:55 PM 30.2 °F 25.4 °F 19.4 °F 64% 30.23 in 10.0 mi SW 4.6 mph - N/A   Overcast
11:15 PM 30.2 °F 25.4 °F 19.4 °F 64% 30.23 in 10.0 mi WSW 4.6 mph - N/A   Overcast
11:35 PM 30.2 °F 23.4 °F 21.2 °F 69% 30.24 in 10.0 mi SW 6.9 mph - N/A   Overcast
11:55 PM 30.2 °F 23.4 °F 21.2 °F 69% 30.24 in 10.0 mi SW 6.9 mph - N/A   Scattered Clouds